{"data":{"norad_id":27831,"intl_designator":"2003-028B","name":"OPTUS C1","alt_names":[],"object_type":"PAYLOAD","status":"ACTIVE","operator":null,"country":"AUS","launch_date":"2003-06-11","launch_site_code":"FRGUI","launch_vehicle":null,"mission":null,"orbit_class":"UNKNOWN","rcs_meters":25.1188,"size_class":null,"mass_kg":null,"dimensions":null,"purposes":["comms"],"wikipedia_slug":null,"has_3d_model":false,"image_url":null,"decayed_at":null,"tle_current":{"epoch":"2026-09-19T18:49:06.515616Z","epoch_age_seconds":76393,"freshness":"FRESH","line1":"1 27831U 03028B   26262.78410319 -.00000153  00000+0  00000+0 0  9993","line2":"2 27831   7.1200  68.2228 0005490 107.0437 261.4749  1.00272788 54019","mean_motion":1.00272788,"eccentricity":0.000549,"inclination_deg":7.12,"raan_deg":68.2228,"arg_perigee_deg":107.0437,"mean_anomaly_deg":261.4749,"bstar":0,"rev_number":5401,"period_min":1436.0825391631,"perigee_km":35763.165502743,"apogee_km":35809.462069706,"semimajor_km":42164.450786225,"source":"CELESTRAK","updated_at":"2026-09-20T09:00:35.122039Z"}}}